This is the latest recevied weather packets stored in our database for station/object KC9DNQ-3. If no packets are shown the sender has not sent any weather packets the latest 1 day(s).
| Time | Temp. | Humidity | Pressure | Rain* | Wind** | Luminosity | Snow |
|---|---|---|---|---|---|---|---|
| 1778012709 | 12.78° C | 46% | 1008.7 hPa | 0 mm | 1.79 m/s, 279° | 149 W/m² | - |
| 1778012409 | 12.78° C | 45% | 1008.8 hPa | 0 mm | 2.24 m/s, 301° | 139 W/m² | - |
| 1778012108 | 12.78° C | 48% | 1008.8 hPa | 0 mm | 0.89 m/s, 287° | 139 W/m² | - |
| 1778011808 | 12.78° C | 47% | 1008.8 hPa | 0 mm | 2.24 m/s, 274° | 141 W/m² | - |
| 1778011508 | 12.78° C | 48% | 1008.8 hPa | 0 mm | 1.79 m/s, 271° | 151 W/m² | - |
| 1778011208 | 12.78° C | 46% | 1008.8 hPa | 0 mm | 1.34 m/s, 302° | 148 W/m² | - |
| 1778010908 | 12.78° C | 49% | 1008.6 hPa | 0 mm | 1.79 m/s, 316° | 139 W/m² | - |
| 1778010609 | 12.78° C | 45% | 1008.6 hPa | 0 mm | 2.24 m/s, 297° | 139 W/m² | - |
| 1778010308 | 12.78° C | 45% | 1008.6 hPa | 0 mm | 2.68 m/s, 308° | 139 W/m² | - |
| 1778010007 | 12.78° C | 46% | 1008.6 hPa | 0 mm | 1.79 m/s, 291° | 153 W/m² | - |
| 1778009709 | 12.78° C | 45% | 1008.6 hPa | 0 mm | 2.24 m/s, 282° | 167 W/m² | - |
| 1778009409 | 13.33° C | 46% | 1008.5 hPa | 0 mm | 2.68 m/s, 290° | 176 W/m² | - |
| 1778009108 | 13.33° C | 48% | 1008.5 hPa | 0 mm | 1.34 m/s, 314° | 188 W/m² | - |
| 1778008809 | 13.33° C | 45% | 1008.6 hPa | 0 mm | 1.34 m/s, 285° | 179 W/m² | - |
| 1778008508 | 13.33° C | 44% | 1008.7 hPa | 0 mm | 1.79 m/s, 324° | 190 W/m² | - |
| 1778008208 | 13.33° C | 46% | 1008.7 hPa | 0 mm | 1.79 m/s, 320° | 193 W/m² | - |
| 1778007908 | 13.33° C | 45% | 1008.6 hPa | 0 mm | 1.34 m/s, 294° | 202 W/m² | - |
| 1778007608 | 13.33° C | 46% | 1008.7 hPa | 0 mm | 2.24 m/s, 279° | 209 W/m² | - |
| 1778007309 | 13.33° C | 47% | 1008.7 hPa | 0 mm | 1.79 m/s, 234° | 220 W/m² | - |
| 1778007008 | 13.33° C | 46% | 1008.7 hPa | 0 mm | 1.79 m/s, 265° | 229 W/m² | - |
| 1778006708 | 13.33° C | 47% | 1008.7 hPa | 0 mm | 1.34 m/s, 312° | 243 W/m² | - |
| 1778006408 | 13.33° C | 48% | 1008.8 hPa | 0 mm | 1.34 m/s, 295° | 248 W/m² | - |
| 1778006108 | 13.33° C | 47% | 1008.8 hPa | 0 mm | 0.89 m/s, 250° | 250 W/m² | - |
| 1778005808 | 13.33° C | 47% | 1008.8 hPa | 0 mm | 1.34 m/s, 243° | 264 W/m² | - |
| 1778005508 | 12.78° C | 50% | 1008.7 hPa | 0 mm | 1.34 m/s, 268° | 267 W/m² | - |
* Rain latest hour (hover to see other rain measurements)
** Current wind speed in m/s (hover to see current wind gust speed)